Вернуться в каталог

COSMOS 397 DEB

АктивенLEO
NORAD 5042·DEBRIS·🇷🇺 Russia

Запущен Feb 25, 1971 с Baikonur Cosmodrome

Loading…

Ближайшие Пролёты

TLE

Source: Space-Track
1 05042U 71015P   26228.42423930  .00001655  00000-0  39820-3 0  9994
2 05042  65.6059  19.6831 0564964 276.1921  77.5102 13.88661201660486

Отслеживайте COSMOS 397 DEB в реальном времени с AllMySat

Download on the App Store